Location: Ponte Samoggia
(44.5667°N, 11.1333°E)
Time: 17:45:13
(UTC+00:00)

Lacrosse 5 - Pass Details

Date: 26 May 2022
Orbit: 714 x 724 km, 57.0° (Epoch: 09 March)

Event Time Altitude Azimuth Distance (km) Brightness Sun altitude
Exits shadow 02:37:42 - 264° (W) 2,564 4.2 -9.4°
Reaches altitude 10° 02:38:43 10° 269° (W) 2,213 3.9 -9.2°
Maximum altitude 02:43:20 34° 334° (NNW) 1,188 3.2 -8.6°
Drops below altitude 10° 02:47:58 10° 39° (NE) 2,216 6.0 -8.0°
Sets 02:50:34 0° 49° (NE) 3,137 7.8 -7.6°
